Location: CNYAC Observatory
(43.2150°N, 74.9500°W)
Time: 22:02:06
(UTC-04:00)

Daily predictions for brighter satellites

Satellite Brightness Start Highest point End
(mag) Time Altitude Azimuth Time Altitude Azimuth Time Altitude Azimuth
Cosmos 1703 4.4 18:36:27 10° NNE 18:39:39 23° ENE 18:42:48 10° SE
CZ-4 R/B 1.6 18:36:49 10° SSE 18:41:03 84° WSW 18:45:15 10° NNW
CZ-2C R/B 3.7 18:36:45 10° NNE 18:41:21 83° ESE 18:45:49 10° SSW
Abrixas rocket 2.2 18:39:08 10° WSW 18:42:26 79° SSE 18:45:43 10° ENE
Landsat 4 3.7 18:39:04 10° NNE 18:42:49 87° WNW 18:46:32 10° SSW
Cosmos 2219 Rocket 4.0 18:42:19 10° NNE 18:44:16 12° NE 18:46:12 10° ENE
Cosmos 1953 4.4 18:40:50 10° SW 18:44:31 33° WNW 18:48:13 10° N
USA 234 4.5 18:42:00 10° ENE 18:47:20 28° N 18:52:40 10° NW
Cosmos 1624 Rocket 4.0 18:43:15 10° NNW 18:48:27 69° ENE 18:53:40 10° SSE
Cosmos 1809 Rocket 4.5 18:42:33 10° S 18:48:38 88° E 18:54:45 10° N
Cosmos 1400 Rocket 3.4 18:44:55 10° N 18:48:42 35° ENE 18:52:22 10° SE
Cosmos-2242 2.9 18:45:04 10° S 18:49:19 81° E 18:53:36 10° N
Cosmos 1371 Rocket 4.1 18:45:22 10° NNW 18:50:47 86° ENE 18:56:08 10° SSE
BREEZE-M DEB (TANK) 4.1 18:36:58 10° WSW 18:53:42 84° NNW 18:58:15 10° ENE
SL-16 R/B 2.2 18:48:40 10° NNW 18:54:22 88° ENE 19:00:03 10° SSE
SKYMED 2 3.7 18:50:08 10° NNE 18:54:24 54° E 18:58:39 10° S
Tiangong 1 2.7 18:53:24 10° W 18:55:43 25° SSW 18:58:01 10° SE
Meteor 1-28 Rocket 3.5 18:53:21 10° N 18:57:10 72° WNW 19:00:55 10° SSW
ERS-2 3.1 18:54:25 10° S 18:58:01 52° WSW 19:01:39 10° NNW
Cosmos 1743 Rocket 3.6 18:56:41 10° N 19:00:59 54° ENE 19:05:17 10° SSE
Cosmos 1908 4.4 19:00:39 10° SE 19:03:44 22° E 19:06:50 10° NE
Cosmos 1766 Rocket 4.3 18:59:29 10° NNW 19:03:51 60° W 19:08:14 10° S
Cosmos 2151 3.3 19:00:24 10° N 19:04:32 45° ENE 19:08:38 10° SSE
SL-14 R/B 4.5 19:05:27 10° NNW 19:09:08 45° W 19:12:48 10° SSW
Cosmos 1842 Rocket 3.7 19:04:52 10° S 19:09:14 54° E 19:13:35 10° NNE
H-2A R/B 3.8 19:08:39 10° SE 19:11:52 26° ENE 19:15:08 10° NNE
Cosmos 2237 Rocket 4.1 19:10:32 10° NNE 19:12:12 11° NE 19:13:50 10° NE
Resurs 01 Rocket 3.5 19:12:24 13° ENE 19:12:26 13° ENE 19:14:20 10° NE
Cosmos 2366 rocket 4.0 19:08:02 10° S 19:14:16 83° E 19:20:29 10° N
Cosmos 2221 3.2 19:17:19 10° SSE 19:21:07 31° E 19:24:58 10° NNE
ISS -1.3 19:20:26 10° W 19:22:55 20° SW 19:25:23 10° S
Cosmos 1500 Rocket 3.4 19:19:04 10° N 19:23:27 73° E 19:27:45 10° SSE
FREGAT/IRIS 3.2 19:23:45 22° ESE 19:25:04 33° ENE 19:27:48 10° N
SPOT 3 Rocket 3.8 19:21:16 10° S 19:26:27 74° WSW 19:31:41 10° NNW
Cosmos 1315 Rocket 2.9 19:25:38 10° N 19:29:37 52° ENE 19:33:36 10° SSE
Cosmos 921 Rocket 3.2 19:26:40 10° N 19:31:02 50° ENE 19:34:56 12° SE
COSMOS 2428 3.3 19:26:12 10° N 19:31:24 35° NE 19:34:16 22° ESE
Cosmos 2333 Rocket 3.4 19:30:20 10° N 19:34:45 22° NE 19:36:01 21° ENE
DMSP B5D1-3 4.5 19:31:01 10° NNE 19:36:11 86° ESE 19:41:19 10° SSW
NOSS 3 (A) 4.5 19:33:33 10° SSW 19:36:15 57° ESE 19:36:59 41° ENE
HJ-1C 4.1 19:36:22 33° ENE 19:36:22 33° ENE 19:39:28 10° N
Cosmos 1461 4.4 19:34:06 10° WSW 19:37:48 34° NW 19:41:42 10° NNE
Cosmos 2360 Rocket 2.1 19:33:03 10° NNW 19:38:45 83° ENE 19:44:25 10° SSE
Cosmos 1833 4.1 19:33:31 10° SSW 19:39:12 78° ESE 19:44:52 10° NNE
Cosmos 2058 3.1 19:35:06 10° NNW 19:39:18 74° W 19:43:26 10° S
Cosmos 2098 Rocket 3.6 19:37:21 10° SSE 19:41:12 38° E 19:46:01 10° NNE
NOAA 12 4.4 19:36:12 10° S 19:41:29 72° WSW 19:46:48 10° NNW
FengYun 1-2 T 4.2 19:36:30 10° SSE 19:41:56 63° ENE 19:47:22 10° N
Meteor 2-1 Rocket 4.3 19:36:31 10° S 19:42:17 88° ESE 19:48:12 10° N
COSMO-SKYMED 1 3.7 19:38:18 10° N 19:42:27 45° WNW 19:46:35 10° SW
RESURS DK-1 2.2 19:40:13 10° NNW 19:44:22 79° ENE 19:47:05 21° SSE
Cosmos 2219 3.9 19:39:30 10° SSE 19:44:25 30° ESE 19:45:36 28° E
Cosmos 2322 Rocket 3.7 19:39:31 10° NW 19:44:38 37° WSW 19:49:43 10° S
Cosmos 1626 3.5 19:42:30 10° NNW 19:46:01 40° W 19:49:32 10° SSW
SL-24 R/B - RUBIN 2 3.6 19:42:26 10° NNW 19:47:24 80° NE 19:49:57 26° SE
Cosmos 1821 Rocket 4.0 19:45:59 10° SSE 19:51:56 55° E 19:57:59 10° NNE
Cosmos 1000 Rocket 4.4 19:46:23 10° N 19:52:38 67° E 19:58:45 10° SSE
BREEZE-M DEB (TANK) 1.8 19:51:04 10° WSW 19:52:36 49° SW 19:52:36 49° SW
USA 267 3.4 19:49:38 22° ENE 19:53:47 53° SE 20:00:08 10° SSW
Cosmos 1452 Rocket 3.5 19:48:36 10° NNW 19:53:53 84° WSW 19:59:07 10° SSE
Lacrosse 5 rocket 3.7 19:51:49 10° WNW 19:54:54 18° NNW 19:57:43 11° NNE
SL-8 R/B 3.7 19:50:08 10° SW 19:54:54 66° SSE 19:56:27 41° E
SJ-6B 2.5 19:55:11 42° SE 19:56:16 66° ENE 19:59:59 10° N
Sich 1 3.9 19:55:07 10° N 19:58:06 32° NE 19:58:06 32° NE
Cosmos 2239 Rocket 4.4 19:54:55 10° S 20:00:58 64° E 20:07:03 10° NNE
Cosmos 1934 Rocket 4.1 19:55:19 10° SSE 20:01:23 50° E 20:07:30 10° NNE
Cosmos 1805 Rocket 3.5 19:57:12 10° N 20:01:32 60° E 20:02:32 46° SE
Atlas Centaur 2 3.7 19:58:30 10° SW 20:02:35 22° S 20:04:35 19° SSE
Aureole 2 4.3 20:00:49 10° NNW 20:03:43 74° W 20:03:43 74° W
DELTA 2 R/B (1) 3.9 19:58:35 10° W 20:04:03 57° S 20:05:56 38° SE
Cosmos 2322 3.8 19:58:25 10° NNW 20:04:10 78° WSW 20:09:19 13° SSE
Gbstr 26 Del rocket 4.0 20:03:55 10° NW 20:08:57 51° NNE 20:10:30 41° ENE
Cosmos 1666 Rocket 4.4 20:05:41 10° N 20:08:35 35° NNE 20:08:35 35° NNE
ALOS 3.7 20:05:47 10° SSW 20:10:06 37° W 20:14:28 10° NNW
Spot 2 Rocket 4.0 20:11:22 40° NE 20:11:22 40° NE 20:15:36 10° N
BREEZE M DEB (TANK) 2.9 20:07:14 10° WNW 20:10:26 36° NNW 20:10:26 36° NNW
CZ-4C R/B 2.7 20:08:38 10° S 20:12:17 37° SSE 20:12:17 37° SSE
Cosmos 2123 Rocket 3.9 20:12:35 10° N 20:18:45 61° E 20:20:47 42° SE
Abrixas rocket 3.7 20:16:12 10° WNW 20:18:42 32° NNW 20:18:42 32° NNW
Cosmos 1633 Rocket 4.3 20:15:49 10° N 20:18:10 29° NNE 20:18:10 29° NNE
Cosmos 1605 Rocket 4.5 20:27:39 40° NE 20:27:39 40° NE 20:31:51 10° NNE
USA 234 3.6 20:28:01 41° ENE 20:29:22 47° NNE 20:35:35 10° NW
Cosmos 2219 Rocket 2.2 20:23:54 10° NNW 20:29:17 60° NE 20:29:17 60° NE
Cosmos 1048 Rocket 4.0 20:31:09 10° SSW 20:36:16 76° WNW 20:38:42 32° NNE
Cosmos 2333 4.3 20:33:56 10° NNW 20:39:40 77° WSW 20:40:47 58° S
Envisat 3.3 20:46:17 60° N 20:46:17 60° N 20:50:26 10° NNW
Resurs 01 Rocket 2.8 20:49:59 37° NNW 20:49:59 37° NNW 20:52:44 10° NNW
Cosmos 2237 Rocket 3.1 20:51:59 10° NNW 20:55:41 38° N 20:55:41 38° N
In-Cosmos 22 Rocket 4.4 20:53:21 10° NNW 20:58:32 71° NW 20:58:32 71° NW
SL-16 R/B 4.1 21:00:41 10° N 21:02:44 19° N 21:02:44 19° N
COSMOS 2428 3.9 21:10:29 10° NW 21:15:39 37° WSW 21:16:20 36° WSW
Cosmos 2333 Rocket 3.0 21:13:50 10° NNW 21:18:02 48° NW 21:18:02 48° NW
Cosmos 2219 4.3 21:22:56 10° SW 21:27:40 41° WNW 21:27:40 41° WNW
USA 267 3.8 21:37:01 53° NW 21:37:01 53° NW 21:43:05 10° WSW
